Location: Burland Observatory
(39.4088°N, 105.4217°W)
Time: 09:16:04
(UTC-07:00)

Vanguard 3 - Pass Details

Date: 09 December 2019
Orbit: 508 x 3263 km, 33.3° (Epoch: 19 January)

Event Time Altitude Azimuth Distance (km) Brightness Sun altitude
Rises 10:53:30 0° 267° (W) 4,741 11.0 26.2°
Reaches altitude 10° 10:56:08 10° 264° (W) 4,053 10.7 26.3°
Maximum altitude 11:07:46 67° 185° (S) 2,658 10.7 26.8°
Drops below altitude 10° 11:26:22 10° 109° (ESE) 6,136 12.0 27.4°
Sets 11:31:26 0° 107° (ESE) 7,224 12.3 27.5°
